Wind_Speed
9 10 12 13 14 15 15 15 16 18 21 25 26 27 29 30 32 34 36 39 41 43 44 45 45 45 45 45 45 44 44 43 43 43 44 44 44 45 46 47 47 47 48 48
9 10 13 13 15 17 18 18 18 20 23 26 27 29 29 30 33 35 37 40 42 44 45 45 45 46 46 46 45 44 44 43 43 43 44 44 45 46 46 46 46 46 46 45
8 8 11 14 16 19 20 20 22 24 25 27 28 29 29 30 33 35 38 40 42 44 46 46 46 46 47 46 45 44 44 43 44 43 43 44 45 45 45 45 44 44 44 42
10 8 10 14 18 21 22 22 23 24 26 28 29 31 31 31 34 36 39 42 44 45 46 47 47 47 47 46 45 44 44 43 44 43 44 44 45 44 44 43 42 42 41 39
13 10 11 16 22 21 22 24 22 23 25 26 28 32 34 34 37 39 42 43 44 46 47 47 47 47 47 46 45 44 43 43 43 43 44 44 44 43 42 41 40 40 38 36
15 14 13 17 21 21 24 27 24 25 26 27 29 30 34 36 38 40 42 43 44 45 47 47 47 47 47 46 45 44 43 43 43 44 44 43 43 42 40 39 39 37 36 33
19 19 18 24 23 24 26 27 27 28 28 29 30 31 33 35 38 41 43 43 44 45 47 48 48 47 47 46 44 43 43 43 43 44 44 42 41 40 39 38 37 36 33 31
21 20 23 27 27 27 26 26 27 27 28 28 29 31 34 37 39 42 43 43 44 45 47 48 48 47 46 45 44 43 43 43 43 43 43 41 40 39 37 36 35 33 31 29
21 23 27 28 28 28 27 26 26 27 27 28 30 32 35 38 40 42 43 43 43 45 46 48 48 48 47 45 44 42 42 42 42 42 41 40 39 37 35 34 32 31 30 27
23 23 26 27 28 28 27 26 26 27 27 29 31 34 36 38 40 42 42 42 43 44 46 47 48 48 47 45 43 42 41 41 41 41 40 39 38 36 35 33 31 31 29 26
26 26 26 26 27 27 27 27 27 27 28 30 33 35 37 39 40 41 41 42 43 44 46 47 48 48 47 45 43 41 40 40 40 40 40 38 37 36 35 32 31 29 27 24
26 27 27 27 27 27 27 27 27 28 30 33 35 37 38 40 40 41 41 42 43 44 45 47 48 47 46 45 43 41 40 39 39 39 39 38 37 35 34 32 30 28 26 23
27 26 26 27 28 27 28 29 30 31 32 34 36 38 39 40 40 41 41 42 43 44 45 46 47 47 46 44 42 40 39 38 38 38 39 37 36 35 33 30 28 27 25 22
28 27 26 27 28 29 30 31 33 34 35 37 38 39 40 40 41 41 42 42 43 43 44 45 46 46 45 44 41 39 38 37 37 38 37 37 37 36 33 30 27 25 23 21
29 29 29 29 29 31 32 34 35 37 39 40 40 40 41 41 41 42 42 42 43 43 43 45 45 45 44 43 40 38 37 36 36 37 36 35 35 35 33 30 28 25 22 20
31 32 32 33 34 34 36 37 38 40 41 42 42 42 42 42 42 43 43 43 43 42 43 43 44 43 43 42 40 37 36 35 34 35 34 34 33 33 32 31 29 26 23 19
35 36 36 37 38 39 39 40 41 42 43 43 44 43 43 43 43 43 43 43 43 42 42 42 42 42 42 41 39 36 34 33 33 33 32 32 32 32 31 30 30 27 23 19
38 39 40 41 42 42 43 43 44 44 44 44 45 44 44 43 43 43 43 42 42 41 41 41 40 40 40 39 37 35 33 31 30 30 31 30 30 30 30 30 29 27 24 20
42 43 44 44 45 45 46 46 45 46 46 45 45 45 45 44 44 43 43 41 40 40 40 39 39 38 38 38 36 34 31 29 28 28 28 28 28 28 28 28 27 26 24 20
45 46 47 47 48 48 49 48 48 48 47 46 45 45 45 45 44 43 42 42 41 40 39 38 37 37 37 36 34 32 29 27 26 25 25 25 26 26 25 26 25 24 23 20
48 49 49 50 51 51 51 51 50 50 49 48 47 46 46 45 44 43 42 42 40 38 37 36 35 34 34 34 33 30 28 25 24 23 22 22 22 23 22 22 23 23 22 20
52 52 52 52 53 53 52 52 52 51 50 49 48 47 47 46 44 43 41 39 37 36 35 34 33 33 32 32 31 28 26 23 21 21 20 19 19 20 20 19 20 20 20 20
56 56 56 56 56 55 54 54 54 53 52 51 50 50 49 47 44 42 41 39 36 35 34 33 32 31 30 30 29 27 24 21 19 18 17 16 16 16 17 16 16 17 17 18
59 59 59 59 59 58 57 56 55 54 53 52 51 50 49 46 44 43 41 38 36 34 32 32 31 29 28 27 27 25 22 20 17 16 15 14 14 13 13 14 13 14 15 15
61 61 60 60 59 58 57 56 55 54 53 52 50 49 47 45 44 42 40 37 34 33 31 30 28 27 26 25 25 23 21 18 16 14 13 12 12 11 10 10 11 11 12 13
60 60 59 58 58 56 55 54 53 52 51 50 48 46 45 43 41 40 39 36 34 32 30 28 27 25 24 24 23 21 19 17 14 13 12 11 10 9 8 8 8 8 9 10
60 58 57 56 55 54 52 51 49 48 47 46 45 44 42 40 39 37 35 34 33 31 30 28 26 24 22 22 21 20 18 16 14 12 11 10 8 7 7 6 5 6 6 7
Wind_Direction
286 287 288 294 299 301 302 302 302 302 305 306 317 320 322 324 325 327 329 330 331 331 331 330 329 328 327 326 324 322 321 319 317 315 313 312 311 309 308 306 303 300 297 292
290 292 296 302 302 301 305 307 307 309 308 312 320 321 324 326 327 329 330 331 331 332 331 331 331 330 328 327 326 325 323 321 319 318 317 316 315 313 312 310 308 305 301 297
289 281 295 304 297 300 305 307 309 311 311 316 320 321 325 328 327 329 330 332 333 333 333 333 332 332 331 330 328 327 325 324 323 321 320 319 319 317 316 315 313 310 307 301
299 289 299 300 297 302 306 306 309 312 313 318 321 322 326 329 328 330 333 335 335 335 335 335 334 333 333 331 330 329 328 326 325 324 323 323 323 321 320 319 318 315 312 307
308 302 296 294 298 303 306 307 312 312 313 317 320 322 326 330 332 334 335 335 336 336 336 337 336 335 334 333 332 331 330 329 328 326 326 326 326 324 323 323 321 319 318 313
311 311 307 295 294 306 307 307 316 314 317 320 322 324 326 330 332 333 334 335 336 337 338 338 338 337 336 335 333 332 331 331 330 329 329 329 329 328 327 327 326 324 323 318
314 316 307 295 303 304 303 308 313 314 318 319 321 324 326 328 331 333 335 335 336 338 339 340 339 338 337 336 335 334 333 333 332 331 332 332 332 331 331 331 330 329 328 324
297 296 286 297 301 302 304 306 308 311 314 317 320 323 327 329 332 333 335 335 336 338 339 340 340 339 339 338 337 336 335 335 334 334 334 335 334 334 334 334 334 334 332 330
291 290 292 297 300 302 304 306 308 310 313 317 320 324 327 330 332 333 334 335 336 337 339 340 340 340 340 339 338 338 337 337 337 336 337 337 336 337 337 336 337 336 336 334
297 293 291 296 299 302 304 306 308 310 313 317 321 324 327 329 331 333 334 334 335 337 339 340 341 341 341 341 340 339 339 339 339 339 340 339 338 338 339 337 338 338 338 336
298 297 296 298 299 302 304 306 308 311 313 316 320 324 326 329 331 332 333 334 335 336 338 340 341 342 341 341 341 341 340 340 341 342 343 342 341 340 339 339 339 339 340 338
296 298 299 300 301 302 304 306 308 310 313 316 319 323 326 328 330 332 333 333 334 336 337 339 341 342 342 342 342 342 342 342 342 344 345 345 345 344 341 339 339 341 342 341
296 298 298 300 301 303 304 306 308 310 312 315 318 322 324 327 329 331 332 333 334 335 337 339 340 341 342 343 343 343 343 343 344 345 347 348 348 348 345 343 342 343 344 345
296 298 298 298 299 301 303 304 306 309 311 314 317 320 323 325 327 329 331 332 333 335 336 338 340 341 342 343 343 343 343 344 345 347 348 350 351 352 351 349 347 346 345 347
294 296 297 296 297 298 299 301 304 307 310 313 316 318 321 323 325 327 329 330 332 333 334 337 339 341 342 342 343 343 344 345 347 348 350 352 354 355 355 355 353 350 349 351
292 293 294 295 296 297 299 301 303 305 308 311 314 317 319 321 322 324 326 327 329 331 333 335 338 340 341 342 342 343 344 346 348 350 352 354 356 359 360 360 358 356 354 354
290 291 292 293 295 296 298 300 302 304 306 309 311 313 315 317 319 321 323 325 327 329 332 334 336 338 340 341 342 343 344 345 348 351 353 356 358 0 2 3 2 2 3 2
288 288 289 291 292 294 296 298 300 301 303 305 307 309 311 314 316 318 319 322 324 326 328 331 333 336 339 341 341 342 343 345 348 351 353 356 359 2 4 5 6 9 10 11
286 286 287 289 290 292 294 295 296 297 298 301 303 305 307 309 312 314 315 317 320 323 325 328 331 334 337 339 340 341 342 344 347 350 354 357 1 4 6 8 9 12 17 21
283 284 285 286 288 289 291 291 292 293 295 297 298 300 301 304 306 309 311 312 315 319 322 325 329 332 335 337 338 339 340 342 345 349 353 357 360 3 6 11 12 15 18 23
281 282 283 284 285 286 287 288 289 290 292 293 294 295 297 299 301 304 306 307 311 315 318 321 325 328 331 334 337 337 338 340 342 346 350 355 359 2 7 11 15 18 21 25
281 282 282 282 283 284 285 285 286 287 288 289 290 291 293 295 296 299 302 303 307 311 315 318 322 325 328 331 334 335 335 336 339 342 347 351 356 1 7 12 16 20 24 27
281 282 282 282 283 283 284 284 285 285 285 286 287 288 290 291 293 295 298 300 304 306 310 313 317 320 324 328 330 332 332 333 334 338 342 346 352 359 6 12 17 22 24 26
281 281 281 282 283 284 284 284 284 284 284 285 286 286 288 290 291 292 293 297 300 302 305 308 312 315 319 324 327 329 329 329 330 332 335 340 346 354 4 11 16 21 21 24
279 281 282 282 283 283 284 284 284 284 284 284 286 286 286 287 288 289 290 292 295 298 301 304 308 312 315 319 322 324 325 324 324 325 327 333 339 347 358 9 15 19 23 27
280 281 282 282 282 283 283 284 284 285 285 285 285 284 284 285 285 285 285 288 290 293 296 299 303 307 310 313 316 319 321 319 317 316 317 321 330 338 348 1 13 19 27 30
281 282 282 282 282 282 283 283 284 285 285 284 284 283 282 281 281 281 281 284 286 288 290 294 298 300 304 308 310 313 315 314 310 306 306 307 312 320 331 343 359 15 25 27
Height
5857 5856 5855 5854 5852 5850 5847 5845 5843 5841 5837 5832 5828 5824 5819 5814 5808 5802 5796 5789 5781 5773 5765 5756 5747 5738 5730 5721 5713 5705 5698 5690 5683 5677 5670 5663 5656 5649 5642 5635 5629 5622 5616 5611
5854 5853 5852 5851 5849 5847 5844 5841 5839 5836 5833 5827 5824 5819 5814 5809 5803 5797 5790 5783 5775 5766 5757 5748 5739 5730 5721 5713 5704 5696 5688 5681 5673 5666 5659 5651 5644 5636 5629 5621 5613 5606 5599 5593
5851 5851 5850 5849 5846 5843 5841 5838 5835 5832 5829 5823 5819 5814 5810 5805 5798 5792 5785 5777 5768 5759 5749 5740 5731 5722 5713 5704 5696 5687 5680 5672 5664 5656 5648 5640 5632 5624 5616 5607 5599 5591 5584 5577
5848 5848 5847 5847 5842 5840 5837 5834 5831 5827 5822 5818 5814 5808 5804 5800 5793 5786 5778 5769 5760 5751 5742 5733 5723 5714 5705 5696 5687 5679 5671 5663 5655 5647 5639 5630 5621 5613 5604 5595 5587 5579 5571 5563
5846 5844 5844 5842 5838 5836 5833 5829 5827 5823 5819 5814 5810 5803 5797 5793 5786 5778 5770 5762 5754 5745 5735 5726 5717 5707 5698 5689 5680 5672 5663 5655 5647 5638 5630 5621 5612 5603 5594 5585 5577 5568 5560 5552
5842 5841 5839 5838 5834 5832 5829 5824 5822 5817 5813 5809 5805 5800 5794 5787 5780 5773 5765 5756 5747 5739 5729 5720 5710 5701 5691 5682 5673 5665 5656 5648 5639 5630 5621 5612 5603 5594 5585 5577 5568 5559 5551 5543
5838 5837 5836 5831 5830 5828 5825 5821 5816 5811 5808 5804 5799 5795 5789 5782 5775 5767 5759 5750 5741 5732 5723 5714 5704 5695 5685 5676 5667 5658 5649 5641 5632 5623 5614 5605 5596 5587 5578 5569 5561 5552 5544 5537
5836 5834 5833 5826 5824 5822 5819 5815 5811 5807 5803 5799 5794 5789 5783 5776 5769 5761 5753 5744 5736 5727 5718 5708 5699 5689 5680 5670 5661 5652 5643 5635 5626 5616 5607 5598 5589 5580 5571 5563 5555 5547 5539 5532
5832 5831 5826 5822 5819 5815 5812 5809 5806 5802 5798 5794 5789 5783 5777 5770 5763 5755 5747 5739 5730 5722 5713 5703 5693 5684 5674 5665 5656 5647 5638 5629 5620 5611 5601 5592 5583 5575 5566 5558 5550 5543 5536 5529
5825 5824 5820 5816 5813 5810 5806 5803 5800 5796 5792 5788 5783 5777 5771 5764 5757 5749 5741 5733 5725 5717 5708 5698 5689 5679 5669 5660 5651 5642 5633 5624 5615 5606 5597 5587 5578 5570 5562 5554 5547 5540 5533 5526
5819 5816 5813 5811 5807 5804 5801 5797 5794 5790 5786 5782 5777 5771 5765 5758 5751 5744 5736 5728 5720 5711 5703 5694 5684 5674 5664 5655 5646 5637 5629 5620 5611 5602 5593 5584 5575 5566 5558 5551 5544 5537 5530 5524
5813 5810 5807 5804 5801 5798 5795 5792 5788 5785 5780 5775 5770 5765 5759 5752 5745 5738 5730 5723 5715 5706 5698 5689 5679 5670 5660 5651 5642 5634 5625 5617 5608 5599 5590 5581 5572 5563 5555 5548 5541 5534 5528 5522
5806 5803 5801 5798 5794 5792 5789 5785 5782 5778 5774 5769 5764 5758 5752 5746 5739 5732 5725 5717 5709 5701 5693 5684 5675 5666 5656 5647 5638 5630 5622 5613 5605 5596 5587 5578 5569 5560 5552 5545 5538 5532 5526 5521
5799 5797 5794 5792 5788 5785 5782 5779 5775 5771 5766 5762 5757 5751 5746 5739 5733 5726 5719 5711 5704 5696 5688 5679 5671 5662 5653 5644 5635 5627 5619 5610 5602 5594 5585 5576 5568 5559 5550 5543 5537 5531 5526 5520
5792 5789 5787 5784 5782 5778 5775 5771 5767 5763 5758 5753 5749 5744 5738 5732 5726 5719 5713 5706 5698 5691 5683 5675 5667 5658 5649 5640 5632 5624 5616 5608 5601 5592 5584 5575 5567 5559 5550 5543 5536 5530 5525 5520
5784 5781 5779 5776 5773 5770 5767 5763 5759 5755 5750 5745 5740 5735 5730 5724 5718 5712 5706 5699 5693 5686 5678 5670 5662 5654 5646 5638 5629 5622 5614 5606 5599 5591 5583 5575 5568 5560 5551 5544 5537 5531 5525 5521
5775 5772 5770 5767 5764 5761 5757 5754 5750 5745 5741 5736 5731 5727 5722 5716 5711 5705 5699 5693 5687 5680 5673 5666 5658 5651 5643 5635 5627 5619 5612 5605 5598 5591 5583 5576 5568 5561 5553 5546 5539 5532 5526 5522
5765 5762 5759 5756 5753 5750 5747 5743 5739 5735 5731 5727 5722 5718 5713 5709 5703 5698 5692 5687 5681 5674 5668 5661 5654 5647 5640 5632 5625 5617 5611 5604 5597 5590 5584 5576 5569 5562 5555 5548 5541 5535 5529 5524
5753 5750 5748 5745 5742 5739 5736 5733 5729 5725 5721 5717 5713 5709 5704 5700 5695 5690 5685 5680 5675 5669 5663 5656 5649 5643 5636 5629 5622 5615 5609 5603 5597 5590 5584 5577 5571 5565 5558 5551 5545 5539 5533 5528
5741 5738 5736 5733 5730 5727 5724 5721 5718 5714 5711 5707 5703 5699 5695 5691 5687 5682 5677 5673 5668 5662 5657 5651 5644 5638 5632 5626 5619 5613 5607 5601 5596 5590 5585 5579 5573 5567 5561 5555 5549 5543 5538 5533
5728 5726 5723 5721 5718 5715 5712 5709 5706 5702 5699 5696 5692 5689 5685 5681 5677 5673 5669 5665 5660 5655 5650 5645 5640 5634 5628 5622 5616 5611 5605 5600 5595 5590 5585 5580 5575 5569 5564 5558 5553 5548 5543 5539
5713 5711 5709 5706 5703 5701 5698 5695 5692 5689 5686 5683 5680 5677 5674 5670 5667 5663 5660 5657 5652 5648 5644 5639 5634 5629 5623 5618 5613 5608 5603 5598 5593 5589 5585 5581 5576 5571 5567 5562 5557 5552 5548 5544
5697 5695 5692 5690 5687 5685 5683 5680 5677 5674 5672 5669 5667 5665 5662 5659 5655 5653 5650 5647 5644 5640 5636 5632 5628 5623 5619 5614 5609 5605 5600 5596 5592 5588 5584 5581 5577 5573 5569 5565 5561 5557 5553 5549
5679 5676 5674 5672 5670 5668 5666 5664 5661 5659 5657 5655 5653 5651 5649 5647 5644 5642 5640 5638 5635 5632 5629 5625 5621 5617 5613 5609 5605 5601 5597 5593 5590 5586 5583 5580 5577 5574 5571 5567 5564 5561 5557 5554
5660 5658 5656 5654 5652 5650 5648 5646 5644 5643 5641 5639 5638 5637 5635 5634 5632 5630 5629 5628 5625 5622 5620 5618 5614 5611 5608 5604 5601 5597 5593 5590 5587 5584 5582 5580 5577 5574 5572 5569 5566 5563 5561 5558
5642 5640 5638 5636 5634 5632 5631 5630 5628 5627 5625 5624 5623 5622 5622 5621 5620 5618 5617 5616 5615 5613 5611 5609 5607 5604 5601 5599 5596 5592 5589 5586 5584 5582 5580 5578 5576 5574 5572 5570 5568 5566 5563 5561
5622 5621 5619 5618 5616 5615 5614 5614 5612 5611 5610 5609 5608 5608 5608 5608 5607 5607 5606 5606 5605 5604 5603 5601 5599 5597 5595 5593 5590 5587 5585 5582 5580 5578 5577 5576 5575 5573 5572 5570 5569 5567 5566 5564